Location: Cieszkowy
(50.3290°N, 20.5336°E)
Time: 23:28:01
(UTC+00:00)

AQUA - Pass Details

Date: 15 June 2024
Orbit: 693 x 696 km, 98.3° (Epoch: 18 July)

Event Time Altitude Azimuth Distance (km) Brightness Sun altitude
Rises 01:11:41 0° 15° (NNE) 3,087 8.7 -8.9°
Reaches altitude 10° 01:13:58 10° 18° (NNE) 2,164 7.7 -8.7°
Maximum altitude 01:18:42 75° 103° (ESE) 725 4.0 -8.3°
Drops below altitude 10° 01:23:24 10° 189° (S) 2,146 5.8 -7.8°
Enters shadow 01:24:09 - 190° (S) 2,452 6.1 -7.7°
